IRNSS-1I

Last updated on Mon Sep 21 2026 00:03:01 GMT+0000 (Coordinated Universal Time)

1 43286U 18035A 26259.08269186 .00000081 00000+0 00000+0 0 9991 2 43286 28.9650 72.7792 0020697 177.9946 189.1474 1.00272519 30998
UTC large
Height (km)
Speed (km/s)
/
Latitude / Longitude
Inclination (degrees)
Orbital Period (minutes)
Azimuth
Elevation
Range (km)
Doppler Factor

Next 0 passes for location: London (51.5072 / 0.1276)

No passes found over London.
IRNSS-1I